When you browse on this site, cookies collect data to enhance your experience and personalize the content and advertising you see.
Visit our Privacy Policy to learn more. By continuing to use the site, you agree to this use of cookies and data.
  • In Hungary
  • List of Countries
  • For 7 days
  • Water Temperature
  • Weather Map
  • News
  • Weather Widgets
  • user-avatar
    Login

    Hourly Weather Alcamo

    Today, 23 August, Friday

    Time Temperature Precipitation Wind Pressure Humidity
    00:00 +26°C° 0 mm 1 mps 748 mmHg 71%
    01:00 +25°C° 0 mm 1 mps 749 mmHg 73%
    02:00 +25°C° 0 mm 1 mps 748 mmHg 73%
    03:00 +25°C° 0 mm 1 mps 748 mmHg 72%
    04:00 +25°C° 0 mm 1 mps 748 mmHg 72%
    05:00 +26°C° 0 mm 1 mps 748 mmHg 67%
    06:00 +27°C° 0 mm 1 mps 748 mmHg 63%
    07:00 +28°C° 0 mm 1 mps 749 mmHg 57%
    08:00 +30°C° 0 mm 2 mps 749 mmHg 51%
    09:00 +32°C° 0 mm 2 mps 749 mmHg 46%
    10:00 +34°C° 0 mm 3 mps 749 mmHg 40%
    11:00 +35°C° 0 mm 3 mps 749 mmHg 40%
    12:00 +35°C° 0 mm 4 mps 749 mmHg 40%
    13:00 +35°C° 0 mm 4 mps 749 mmHg 40%
    14:00 +35°C° 0 mm 4 mps 749 mmHg 41%
    15:00 +34°C° 0 mm 4 mps 748 mmHg 43%
    16:00 +34°C° 0 mm 3 mps 748 mmHg 44%
    17:00 +31°C° 0 mm 3 mps 748 mmHg 51%
    18:00 +29°C° 0 mm 2 mps 748 mmHg 58%
    19:00 +27°C° 0 mm 2 mps 748 mmHg 66%
    20:00 +27°C° 0 mm 2 mps 748 mmHg 69%
    21:00 +26°C° 0 mm 2 mps 748 mmHg 72%
    22:00 +26°C° 0 mm 2 mps 748 mmHg 75%
    23:00 +25°C° 0 mm 2 mps 748 mmHg 74%

    Tomorrow, 24 August, Saturday

    Time Temperature Precipitation Wind Pressure Humidity
    00:00 +25°C° 0 mm 1 mps 748 mmHg 73%
    01:00 +25°C° 0 mm 1 mps 748 mmHg 71%
    02:00 +25°C° 0 mm 1 mps 747 mmHg 70%
    03:00 +25°C° 0 mm 1 mps 747 mmHg 68%
    04:00 +25°C° 0 mm 1 mps 747 mmHg 67%
    05:00 +26°C° 0 mm 1 mps 747 mmHg 63%
    06:00 +27°C° 0 mm 1 mps 747 mmHg 59%
    07:00 +27°C° 0 mm 1 mps 747 mmHg 55%
    08:00 +29°C° 0 mm 1 mps 748 mmHg 49%
    09:00 +31°C° 0 mm 2 mps 748 mmHg 43%
    10:00 +34°C° 0 mm 2 mps 749 mmHg 37%
    11:00 +34°C° 0 mm 3 mps 749 mmHg 38%
    12:00 +34°C° 0 mm 3 mps 748 mmHg 40%
    13:00 +34°C° 0 mm 4 mps 748 mmHg 41%
    14:00 +34°C° 0 mm 3 mps 748 mmHg 42%
    15:00 +33°C° 0 mm 3 mps 748 mmHg 44%
    16:00 +33°C° 0 mm 3 mps 747 mmHg 45%
    17:00 +30°C° 0 mm 2 mps 747 mmHg 52%
    18:00 +29°C° 0 mm 1 mps 747 mmHg 59%
    19:00 +27°C° 0 mm 1 mps 747 mmHg 66%
    20:00 +27°C° 0 mm 1 mps 747 mmHg 68%
    21:00 +26°C° 0 mm 1 mps 747 mmHg 69%
    22:00 +25°C° 0 mm 1 mps 748 mmHg 71%
    23:00 +25°C° 0 mm 1 mps 748 mmHg 71%

    Day after tomorrow, 25 August, Sunday

    Time Temperature Precipitation Wind Pressure Humidity
    00:00 +25°C° 0 mm 1 mps 747 mmHg 71%
    01:00 +25°C° 0 mm 1 mps 747 mmHg 71%
    02:00 +24°C° 0 mm 1 mps 747 mmHg 70%
    03:00 +24°C° 0 mm 1 mps 747 mmHg 69%
    04:00 +24°C° 0 mm 1 mps 746 mmHg 69%
    05:00 +25°C° 0 mm 1 mps 747 mmHg 64%
    06:00 +26°C° 0 mm 1 mps 747 mmHg 59%
    07:00 +25°C° 0 mm 0 mps 747 mmHg 55%
    08:00 +29°C° 0 mm 1 mps 747 mmHg 50%
    09:00 +31°C° 0 mm 1 mps 748 mmHg 45%
    10:00 +32°C° 0 mm 2 mps 748 mmHg 41%
    11:00 +33°C° 0 mm 3 mps 748 mmHg 42%
    12:00 +34°C° 0 mm 3 mps 748 mmHg 43%
    13:00 +34°C° 0 mm 4 mps 748 mmHg 44%
    14:00 +33°C° 0.1 mm 3 mps 747 mmHg 45%
    15:00 +33°C° 0.1 mm 3 mps 747 mmHg 47%
    16:00 +31°C° 0.1 mm 3 mps 747 mmHg 49%
    17:00 +30°C° 0 mm 2 mps 747 mmHg 56%
    18:00 +28°C° 0 mm 2 mps 747 mmHg 64%
    19:00 +27°C° 0 mm 1 mps 746 mmHg 71%
    20:00 +26°C° 0 mm 1 mps 747 mmHg 73%
    21:00 +26°C° 0 mm 1 mps 747 mmHg 76%
    22:00 +25°C° 0 mm 1 mps 747 mmHg 78%
    23:00 +25°C° 0 mm 1 mps 747 mmHg 78%

    26 August, Monday

    Time Temperature Precipitation Wind Pressure Humidity
    00:00 +25°C° 0 mm 1 mps 747 mmHg 77%
    01:00 +25°C° 0 mm 1 mps 747 mmHg 76%
    02:00 +24°C° 0 mm 1 mps 747 mmHg 76%
    03:00 +24°C° 0 mm 1 mps 747 mmHg 76%
    04:00 +24°C° 0 mm 1 mps 746 mmHg 76%
    05:00 +25°C° 0 mm 1 mps 747 mmHg 73%
    06:00 +26°C° 0 mm 1 mps 747 mmHg 70%
    07:00 +27°C° 0 mm 1 mps 747 mmHg 67%
    08:00 +29°C° 0 mm 2 mps 747 mmHg 58%
    09:00 +31°C° 0 mm 2 mps 748 mmHg 49%
    10:00 +34°C° 0 mm 2 mps 748 mmHg 41%
    11:00 +34°C° 0 mm 3 mps 748 mmHg 40%
    12:00 +34°C° 0 mm 3 mps 748 mmHg 39%
    13:00 +35°C° 0 mm 4 mps 748 mmHg 39%
    14:00 +34°C° 0.1 mm 4 mps 748 mmHg 41%
    15:00 +33°C° 0.1 mm 4 mps 747 mmHg 44%
    16:00 +33°C° 0.1 mm 4 mps 747 mmHg 46%
    17:00 +30°C° 0 mm 3 mps 747 mmHg 55%
    18:00 +28°C° 0 mm 3 mps 747 mmHg 64%
    19:00 +27°C° 0 mm 2 mps 747 mmHg 72%
    20:00 +26°C° 0 mm 2 mps 747 mmHg 75%
    21:00 +25°C° 0 mm 2 mps 747 mmHg 77%
    22:00 +25°C° 0 mm 2 mps 747 mmHg 79%
    23:00 +25°C° 0 mm 2 mps 747 mmHg 77%

    27 August, Tuesday

    Time Temperature Precipitation Wind Pressure Humidity
    00:00 +25°C° 0 mm 1 mps 747 mmHg 74%
    01:00 +25°C° 0 mm 1 mps 747 mmHg 71%
    02:00 +24°C° 0 mm 1 mps 747 mmHg 71%
    03:00 +24°C° 0 mm 1 mps 747 mmHg 70%
    04:00 +22°C° 0 mm 0 mps 747 mmHg 70%
    05:00 +25°C° 0 mm 1 mps 747 mmHg 65%
    06:00 +26°C° 0 mm 1 mps 747 mmHg 60%
    07:00 +27°C° 0 mm 1 mps 748 mmHg 56%
    08:00 +29°C° 0 mm 1 mps 748 mmHg 50%
    09:00 +31°C° 0 mm 2 mps 748 mmHg 44%
    10:00 +34°C° 0 mm 2 mps 748 mmHg 39%
    11:00 +34°C° 0 mm 3 mps 748 mmHg 39%
    12:00 +35°C° 0 mm 3 mps 748 mmHg 39%
    13:00 +35°C° 0 mm 4 mps 748 mmHg 39%
    14:00 +34°C° 0 mm 3 mps 748 mmHg 41%
    15:00 +34°C° 0 mm 3 mps 747 mmHg 43%
    16:00 +32°C° 0 mm 2 mps 747 mmHg 44%
    17:00 +31°C° 0 mm 2 mps 747 mmHg 52%
    18:00 +29°C° 0 mm 2 mps 747 mmHg 59%
    19:00 +27°C° 0 mm 1 mps 747 mmHg 66%
    20:00 +27°C° 0 mm 2 mps 747 mmHg 68%
    21:00 +26°C° 0 mm 2 mps 747 mmHg 70%
    22:00 +26°C° 0 mm 2 mps 748 mmHg 71%
    23:00 +26°C° 0 mm 1 mps 748 mmHg 70%

    28 August, Wednesday

    Time Temperature Precipitation Wind Pressure Humidity
    00:00 +25°C° 0 mm 1 mps 747 mmHg 70%
    01:00 +25°C° 0 mm 1 mps 747 mmHg 69%
    02:00 +25°C° 0 mm 1 mps 747 mmHg 68%
    03:00 +25°C° 0 mm 1 mps 747 mmHg 68%
    04:00 +25°C° 0 mm 1 mps 747 mmHg 67%
    05:00 +26°C° 0 mm 1 mps 747 mmHg 62%
    06:00 +27°C° 0 mm 1 mps 747 mmHg 58%
    07:00 +28°C° 0 mm 1 mps 747 mmHg 53%
    08:00 +30°C° 0 mm 1 mps 748 mmHg 47%
    09:00 +32°C° 0 mm 2 mps 748 mmHg 42%
    10:00 +34°C° 0 mm 2 mps 748 mmHg 36%
    11:00 +35°C° 0 mm 3 mps 748 mmHg 37%
    12:00 +35°C° 0 mm 3 mps 748 mmHg 37%
    13:00 +35°C° 0 mm 4 mps 748 mmHg 37%
    14:00 +34°C° 0 mm 4 mps 748 mmHg 40%
    15:00 +34°C° 0 mm 3 mps 747 mmHg 42%
    16:00 +33°C° 0 mm 3 mps 747 mmHg 45%
    17:00 +30°C° 0 mm 2 mps 747 mmHg 51%
    18:00 +29°C° 0 mm 2 mps 747 mmHg 58%
    19:00 +28°C° 0 mm 1 mps 747 mmHg 64%
    20:00 +27°C° 0 mm 1 mps 747 mmHg 67%
    21:00 +26°C° 0 mm 1 mps 747 mmHg 70%
    22:00 +26°C° 0 mm 1 mps 748 mmHg 73%
    23:00 +25°C° 0 mm 1 mps 747 mmHg 73%
    Show more